| time (UTC) | temp F | wind direction | speed knots | gust knots | rain 1hr in | rain 24hr in | rain mn in | humidity % | barometer mb |
| 20260906203028 | 92 | 190 | 16.5 | 22.6 | 0.00 | 0.00 | 0.00 | 44 | 1003.6 |
| 20260906201536 | 92 | 181 | 17.4 | 25.2 | 0.00 | 0.00 | 0.00 | 44 | 1003.9 |
| 20260906200019 | 92 | 160 | 17.4 | 25.2 | 0.00 | 0.00 | 0.00 | 44 | 1003.9 |
| 20260906194514 | 91 | 150 | 17.4 | 25.2 | 0.00 | 0.00 | 0.00 | 45 | 1004.2 |
| 20260906193020 | 90 | 174 | 14.8 | 23.5 | 0.00 | 0.00 | 0.00 | 49 | 1004.3 |
| 20260906191507 | 90 | 145 | 18.2 | 26.1 | 0.00 | 0.00 | 0.00 | 49 | 1004.5 |
| 20260906190005 | 90 | 177 | 14.8 | 24.3 | 0.00 | 0.00 | 0.00 | 49 | 1004.8 |
| 20260906184504 | 89 | 157 | 16.5 | 21.7 | 0.00 | 0.00 | 0.00 | 49 | 1004.8 |
| 20260906183102 | 89 | 158 | 12.2 | 19.1 | 0.00 | 0.00 | 0.00 | 51 | 1005.0 |
| 20260906181559 | 88 | 153 | 17.4 | 24.3 | 0.00 | 0.00 | 0.00 | 51 | 1005.4 |
| 20260906180115 | 87 | 136 | 14.8 | 23.5 | 0.00 | 0.00 | 0.00 | 53 | 1005.8 |
| 20260906174558 | 86 | 154 | 16.5 | 24.3 | 0.00 | 0.00 | 0.00 | 56 | 1006.1 |
| 20260906173047 | 85 | 123 | 15.6 | 24.3 | 0.00 | 0.00 | 0.00 | 56 | 1006.6 |
| 20260906171543 | 84 | 144 | 14.8 | 24.3 | 0.00 | 0.00 | 0.00 | 58 | 1006.6 |
| 20260906170038 | 82 | 137 | 17.4 | 23.5 | 0.00 | 0.00 | 0.00 | 64 | 1006.8 |
| 20260906164536 | 80 | 126 | 17.4 | 23.5 | 0.00 | 0.00 | 0.00 | 64 | 1006.8 |
| 20260906163033 | 78 | 119 | 16.5 | 23.5 | 0.00 | 0.00 | 0.00 | 68 | 1006.8 |
| 20260906161532 | 77 | 143 | 14.8 | 20.9 | 0.00 | 0.00 | 0.00 | 71 | 1006.5 |
| 20260906160035 | 77 | 127 | 13.0 | 22.6 | 0.00 | 0.00 | 0.00 | 73 | 1006.4 |
| 20260906154534 | 80 | 131 | 11.3 | 18.2 | 0.00 | 0.00 | 0.00 | 68 | 1007.1 |
| 20260906153035 | 80 | 88 | 10.4 | 15.6 | 0.00 | 0.00 | 0.00 | 67 | 1007.2 |
| 20260906151531 | 79 | 110 | 10.4 | 15.6 | 0.00 | 0.00 | 0.00 | 70 | 1007.1 |
| 20260906150025 | 77 | 104 | 7.8 | 13.0 | 0.00 | 0.00 | 0.00 | 72 | 1006.7 |
| 20260906144521 | 76 | 86 | 8.7 | 12.2 | 0.00 | 0.00 | 0.00 | 73 | 1006.8 |
| 20260906143027 | 76 | 81 | 9.6 | 13.0 | 0.00 | 0.00 | 0.00 | 73 | 1006.7 |
| 20260906141516 | 75 | 103 | 6.1 | 7.8 | 0.00 | 0.00 | 0.00 | 75 | 1006.3 |
| 20260906140020 | 75 | 154 | 4.3 | 7.8 | 0.00 | 0.00 | 0.00 | 76 | 1005.9 |
| 20260906134511 | 74 | 148 | 3.5 | 7.8 | 0.00 | 0.00 | 0.00 | 77 | 1005.6 |
| 20260906133021 | 73 | 158 | 6.1 | 9.6 | 0.00 | 0.00 | 0.00 | 78 | 1005.5 |
| 20260906131509 | 72 | 136 | 7.0 | 9.6 | 0.00 | 0.00 | 0.00 | 80 | 1005.4 |
| 20260906130003 | 71 | 135 | 5.2 | 7.0 | 0.00 | 0.00 | 0.00 | 80 | 1005.3 |
| 20260906124558 | 71 | 138 | 5.2 | 6.1 | 0.00 | 0.00 | 0.00 | 79 | 1005.1 |
| 20260906123059 | 71 | 125 | 3.5 | 7.8 | 0.00 | 0.00 | 0.00 | 79 | 1004.9 |
| 20260906121555 | 71 | 140 | 5.2 | 7.0 | 0.00 | 0.00 | 0.00 | 78 | 1004.8 |
| 20260906120057 | 72 | 156 | 5.2 | 8.7 | 0.00 | 0.00 | 0.00 | 78 | 1004.6 |
| 20260906114551 | 72 | 144 | 6.1 | 7.8 | 0.00 | 0.00 | 0.00 | 78 | 1004.6 |
| 20260906113049 | 72 | 143 | 5.2 | 7.8 | 0.00 | 0.00 | 0.00 | 78 | 1004.5 |
| 20260906111652 | 72 | 152 | 4.3 | 7.8 | 0.00 | 0.00 | 0.00 | 77 | 1004.4 |
| 20260906110053 | 72 | 135 | 5.2 | 8.7 | 0.00 | 0.00 | 0.00 | 77 | 1004.3 |
| 20260906104546 | 73 | 129 | 4.3 | 7.0 | 0.00 | 0.00 | 0.00 | 76 | 1004.2 |
| 20260906103100 | 73 | 124 | 2.6 | 6.1 | 0.00 | 0.00 | 0.00 | 76 | 1004.1 |
| 20260906101544 | 73 | 137 | 3.5 | 7.8 | 0.00 | 0.00 | 0.00 | 75 | 1004.0 |
| 20260906100043 | 73 | 139 | 6.1 | 8.7 | 0.00 | 0.00 | 0.00 | 75 | 1004.0 |
| 20260906094543 | 73 | 154 | 7.8 | 10.4 | 0.00 | 0.00 | 0.00 | 75 | 1003.9 |
| 20260906093041 | 73 | 143 | 6.1 | 10.4 | 0.00 | 0.00 | 0.00 | 76 | 1003.8 |
| 20260906091540 | 73 | 138 | 7.8 | 11.3 | 0.00 | 0.00 | 0.00 | 76 | 1003.9 |
| 20260906090057 | 73 | 133 | 7.8 | 11.3 | 0.00 | 0.00 | 0.00 | 76 | 1003.8 |
| 20260906084540 | 73 | 144 | 7.8 | 10.4 | 0.00 | 0.00 | 0.00 | 75 | 1003.8 |
| 20260906083039 | 74 | 144 | 7.0 | 10.4 | 0.00 | 0.00 | 0.00 | 74 | 1004.0 |
| 20260906081536 | 74 | 143 | 7.8 | 12.2 | 0.00 | 0.00 | 0.00 | 74 | 1004.0 |
| 20260906080035 | 74 | 154 | 7.8 | 9.6 | 0.00 | 0.00 | 0.00 | 73 | 1004.2 |
| 20260906074533 | 74 | 150 | 6.1 | 8.7 | 0.00 | 0.00 | 0.00 | 71 | 1004.3 |
| 20260906073030 | 75 | 159 | 7.8 | 10.4 | 0.00 | 0.00 | 0.00 | 69 | 1004.3 |
| 20260906071528 | 75 | 177 | 7.8 | 11.3 | 0.00 | 0.00 | 0.00 | 67 | 1004.3 |
| 20260906070035 | 76 | 170 | 7.8 | 12.2 | 0.00 | 0.00 | 0.00 | 66 | 1004.3 |
| 20260906064523 | 76 | 158 | 7.0 | 10.4 | 0.00 | 0.00 | 0.00 | 64 | 1004.6 |
| 20260906063038 | 77 | 175 | 7.0 | 10.4 | 0.00 | 0.00 | 0.00 | 64 | 1004.5 |
| 20260906061519 | 77 | 189 | 5.2 | 8.7 | 0.00 | 0.00 | 0.00 | 63 | 1004.3 |
| 20260906060017 | 77 | 222 | 7.8 | 13.0 | 0.00 | 0.00 | 0.00 | 63 | 1004.3 |
| 20260906054514 | 78 | 212 | 5.2 | 7.8 | 0.00 | 0.02 | 0.00 | 65 | 1004.4 |
| 20260906053011 | 78 | 200 | 7.0 | 10.4 | 0.00 | 0.02 | 0.00 | 65 | 1004.2 |
| 20260906051507 | 78 | 202 | 6.1 | 12.2 | 0.00 | 0.02 | 0.00 | 67 | 1003.7 |
| 20260906050005 | 78 | 162 | 3.5 | 7.0 | 0.00 | 0.02 | 0.00 | 68 | 1003.8 |
| 20260906044503 | 79 | 180 | 2.6 | 4.3 | 0.00 | 0.04 | 0.02 | 68 | 1003.7 |
| 20260906043002 | 79 | 177 | 2.6 | 6.1 | 0.00 | 0.04 | 0.02 | 68 | 1003.5 |
| 20260906041502 | 80 | 131 | 4.3 | 7.0 | 0.00 | 0.04 | 0.02 | 67 | 1003.6 |
| 20260906040004 | 80 | 135 | 6.1 | 9.6 | 0.00 | 0.04 | 0.02 | 66 | 1003.8 |
| 20260906034501 | 81 | 144 | 7.8 | 10.4 | 0.00 | 0.04 | 0.02 | 65 | 1003.8 |
| 20260906033102 | 81 | 156 | 7.8 | 11.3 | 0.00 | 0.04 | 0.02 | 64 | 1003.9 |
| 20260906031601 | 82 | 149 | 9.6 | 13.0 | 0.00 | 0.04 | 0.02 | 63 | 1003.8 |
| 20260906030100 | 82 | 176 | 10.4 | 17.4 | 0.00 | 0.04 | 0.02 | 63 | 1003.9 |
| 20260906024559 | 82 | 136 | 3.5 | 6.1 | 0.00 | 0.04 | 0.02 | 62 | 1004.3 |
| 20260906023057 | 83 | 155 | 4.3 | 7.0 | 0.00 | 0.04 | 0.02 | 60 | 1003.5 |
| 20260906021558 | 83 | 149 | 6.1 | 8.7 | 0.00 | 0.04 | 0.02 | 58 | 1003.1 |
| 20260906020105 | 84 | 128 | 7.0 | 8.7 | 0.00 | 0.04 | 0.02 | 57 | 1002.7 |
| 20260906014556 | 85 | 139 | 7.0 | 9.6 | 0.00 | 0.04 | 0.02 | 55 | 1002.5 |
| 20260906013105 | 86 | 146 | 7.0 | 10.4 | 0.00 | 0.04 | 0.02 | 55 | 1002.1 |
| 20260906011555 | 86 | 137 | 7.0 | 11.3 | 0.00 | 0.04 | 0.02 | 54 | 1002.0 |
| 20260906010055 | 87 | 142 | 7.0 | 9.6 | 0.00 | 0.04 | 0.02 | 53 | 1002.0 |
| 20260906004558 | 88 | 133 | 7.0 | 10.4 | 0.00 | 0.04 | 0.02 | 52 | 1002.1 |
| 20260906003052 | 89 | 147 | 7.0 | 11.3 | 0.00 | 0.04 | 0.02 | 50 | 1001.9 |
| 20260906001553 | 89 | 155 | 9.6 | 12.2 | 0.00 | 0.04 | 0.02 | 50 | 1001.9 |
| 20260905234608 | 90 | 147 | 7.8 | 13.0 | 0.00 | 0.04 | 0.02 | 49 | 1001.9 |
| 20260905233050 | 90 | 146 | 8.7 | 13.0 | 0.00 | 0.04 | 0.02 | 49 | 1002.0 |
| 20260905231550 | 90 | 150 | 7.8 | 13.9 | 0.00 | 0.04 | 0.02 | 49 | 1002.1 |
| 20260905230054 | 90 | 166 | 10.4 | 15.6 | 0.00 | 0.04 | 0.02 | 48 | 1002.0 |
| 20260905224551 | 91 | 152 | 10.4 | 16.5 | 0.00 | 0.04 | 0.02 | 47 | 1002.0 |
| 20260905223051 | 92 | 196 | 9.6 | 16.5 | 0.00 | 0.04 | 0.02 | 44 | 1001.7 |
| 20260905221551 | 93 | 146 | 13.0 | 19.1 | 0.00 | 0.04 | 0.02 | 44 | 1001.8 |
| 20260905220045 | 94 | 177 | 13.0 | 19.1 | 0.00 | 0.04 | 0.02 | 45 | 1001.8 |
| 20260905214542 | 93 | 168 | 13.0 | 19.1 | 0.00 | 0.04 | 0.02 | 46 | 1002.0 |
| 20260905213039 | 93 | 179 | 11.3 | 17.4 | 0.00 | 0.04 | 0.02 | 47 | 1002.1 |
| 20260905211539 | 93 | 159 | 12.2 | 18.2 | 0.00 | 0.04 | 0.02 | 46 | 1002.4 |
| 20260905210046 | 92 | 165 | 11.3 | 17.4 | 0.00 | 0.04 | 0.02 | 50 | 1002.5 |
| 20260905204535 | 92 | 160 | 13.0 | 18.2 | 0.00 | 0.04 | 0.02 | 50 | 1002.8 |